Weather History for Frankfort, MI

Change the Weather History Date:

Thursday, October 25, 2012

  Actual Average (KTVC) Record (KTVC)
Temperature  
Mean Temperature 63 °F 45 °F  
Max Temperature 76 °F 54 °F 80 °F (2012)
Min Temperature 49 °F 37 °F 23 °F (1949)
Degree Days  
Heating Degree Days 2 20  
Month to date heating degree days 399  
Since 1 July heating degree days 661  
Cooling Degree Days 0 0  
Month to date cooling degree days 0  
Year to date cooling degree days 407  
Growing Degree Days 13 (Base 50)    
Moisture  
Dew Point 59 °F    
Average Humidity 67    
Maximum Humidity 88    
Minimum Humidity 56    
Precipitation  
Precipitation 0.00 in 0.10 in 1.58 in (1991)
Month to date precipitation 2.59  
Year to date precipitation 27.23  
Sea Level Pressure  
Sea Level Pressure 29.71 in    
Wind  
Wind Speed 14 mph (SSW)    
Max Wind Speed 26 mph    
Max Gust Speed 41 mph    
Visibility 10 miles    
Events Rain    
T = Trace of Precipitation, MM = Missing Value Source: NWS Daily Summary

Daily Weather History Graph

Daily Weather History Graph

Search for Another Location

Airport:

Trip Planner

Search our weather history database for the weather conditions in past years. The results will help you decide how hot, cold, wet, or windy it might be!

Date:

Astronomy

Oct. 25, 2012 Rise Set
Actual Time 8:13 AM EDT 6:43 PM EDT
Civil Twilight 7:43 AM EDT 7:13 PM EDT
Nautical Twilight 7:09 AM EDT 7:47 PM EDT
Astronomical Twilight 6:35 AM EDT 8:20 PM EDT
Moon 4:36 PM EDT (10/25) 4:00 AM EDT (10/25)
Length of Visible Light 11h 29m
Length of Day
10h 29m
Waxing Gibbous, 84% of the Moon is Illuminated
Oct 25
Waxing Gibbous
Oct 29
Full
Nov 6
Last Quarter
Nov 13
New
Nov 20
First Quarter

Hourly Weather History & Observations

Time (EDT) Temp. Dew Point Humidity Pressure Visibility Wind Dir Wind Speed Gust Speed Precip Events Conditions
12:12 AM 73.6 °F 62.2 °F 68% 29.82 in 10.0 mi South 12.7 mph 19.6 mph N/A   Scattered Clouds
12:52 AM 73.6 °F 62.2 °F 68% 29.82 in 10.0 mi South 13.8 mph 23.0 mph N/A   Overcast
1:12 AM 74.3 °F 62.4 °F 66% 29.82 in 10.0 mi South 12.7 mph 20.7 mph N/A   Overcast
1:32 AM 74.3 °F 62.6 °F 67% 29.82 in 10.0 mi South 15.0 mph 26.5 mph N/A   Overcast
1:52 AM 74.3 °F 62.6 °F 67% 29.82 in 10.0 mi South 15.0 mph 20.7 mph N/A   Overcast
2:12 AM 73.9 °F 62.6 °F 68% 29.81 in 10.0 mi South 15.0 mph 23.0 mph N/A   Mostly Cloudy
2:33 AM 73.8 °F 62.6 °F 68% 29.81 in 10.0 mi South 10.4 mph 19.6 mph N/A   Mostly Cloudy
2:53 AM 73.8 °F 62.6 °F 68% 29.81 in 10.0 mi South 8.1 mph 20.7 mph N/A   Overcast
3:33 AM 73.2 °F 62.4 °F 69% 29.80 in 10.0 mi South 13.8 mph 20.7 mph N/A   Scattered Clouds
3:53 AM 72.9 °F 62.2 °F 69% 29.79 in 10.0 mi South 12.7 mph 19.6 mph N/A   Clear
4:13 AM 72.7 °F 62.2 °F 70% 29.77 in 10.0 mi South 11.5 mph 17.3 mph N/A   Scattered Clouds
4:33 AM 72.1 °F 62.1 °F 70% 29.78 in 10.0 mi South 11.5 mph - N/A   Scattered Clouds
4:54 AM 71.8 °F 61.7 °F 70% 29.77 in 10.0 mi South 11.5 mph 19.6 mph N/A   Clear
5:14 AM 71.2 °F 61.3 °F 71% 29.76 in 10.0 mi South 11.5 mph 19.6 mph N/A   Clear
5:34 AM 71.1 °F 61.2 °F 71% 29.76 in 10.0 mi South 13.8 mph 18.4 mph N/A   Clear
5:54 AM 70.9 °F 61.0 °F 71% 29.76 in 10.0 mi South 13.8 mph 18.4 mph N/A   Clear
6:14 AM 70.3 °F 60.8 °F 72% 29.75 in 10.0 mi South 15.0 mph 18.4 mph N/A   Clear
6:34 AM 70.3 °F 60.4 °F 71% 29.76 in 10.0 mi South 12.7 mph 19.6 mph N/A   Scattered Clouds
6:54 AM 70.3 °F 60.3 °F 70% 29.76 in 10.0 mi South 12.7 mph 18.4 mph N/A   Mostly Cloudy
7:15 AM 70.7 °F 59.9 °F 69% 29.76 in 10.0 mi SSE 12.7 mph 20.7 mph N/A   Mostly Cloudy
7:55 AM 69.8 °F 59.5 °F 70% 29.72 in 10.0 mi SSE 12.7 mph 18.4 mph N/A   Clear
8:15 AM 68.9 °F 59.4 °F 72% 29.73 in 10.0 mi South 10.4 mph - N/A   Clear
8:35 AM 69.1 °F 59.4 °F 71% 29.73 in 10.0 mi SSE 11.5 mph 18.4 mph N/A   Clear
9:35 AM 70.5 °F 59.5 °F 68% 29.74 in 10.0 mi South 15.0 mph 24.2 mph N/A   Scattered Clouds
9:51 AM 70.7 °F 59.9 °F 69% 29.73 in 10.0 mi South 16.1 mph 26.5 mph N/A   Mostly Cloudy
10:11 AM 71.1 °F 59.7 °F 67% 29.71 in 10.0 mi SSE 19.6 mph 28.8 mph N/A   Mostly Cloudy
10:31 AM 72.7 °F 59.9 °F 64% 29.71 in 10.0 mi South 16.1 mph 24.2 mph N/A   Scattered Clouds
10:51 AM 73.4 °F 59.7 °F 62% 29.70 in 10.0 mi South 20.7 mph 28.8 mph N/A   Scattered Clouds
11:11 AM 73.9 °F 59.9 °F 61% 29.69 in 10.0 mi South 18.4 mph 27.6 mph N/A   Clear
11:31 AM 74.7 °F 59.9 °F 60% 29.68 in 10.0 mi South 18.4 mph 27.6 mph N/A   Clear
11:52 AM 75.6 °F 59.9 °F 58% 29.68 in 10.0 mi South 13.8 mph 27.6 mph N/A   Clear
12:12 PM 76.5 °F 59.9 °F 56% 29.67 in 10.0 mi South 15.0 mph 29.9 mph N/A   Clear
12:32 PM 74.7 °F 59.5 °F 59% 29.67 in 10.0 mi SSW 13.8 mph 24.2 mph N/A   Scattered Clouds
12:52 PM 72.9 °F 59.4 °F 62% 29.68 in 10.0 mi SSW 16.1 mph 25.3 mph N/A   Scattered Clouds
1:12 PM 72.1 °F 59.0 °F 63% 29.68 in 10.0 mi SSW 20.7 mph 31.1 mph N/A   Clear
1:32 PM 71.4 °F 59.0 °F 65% 29.68 in 10.0 mi SSW 20.7 mph 28.8 mph N/A   Mostly Cloudy
1:52 PM 72.7 °F 59.2 °F 62% 29.66 in 10.0 mi SSW 18.4 mph 26.5 mph N/A   Overcast
2:12 PM 74.7 °F 59.5 °F 59% 29.64 in 10.0 mi SSW 12.7 mph 27.6 mph N/A   Mostly Cloudy
2:33 PM 75.7 °F 59.4 °F 57% 29.63 in 10.0 mi SSW 11.5 mph 23.0 mph N/A   Scattered Clouds
2:53 PM 75.0 °F 59.4 °F 58% 29.63 in 10.0 mi SSW 13.8 mph 20.7 mph N/A   Mostly Cloudy
3:13 PM 72.9 °F 59.2 °F 62% 29.63 in 10.0 mi SW 11.5 mph 23.0 mph N/A   Overcast
3:53 PM 73.6 °F 59.2 °F 61% 29.62 in 10.0 mi South 15.0 mph 23.0 mph N/A   Overcast
4:13 PM 75.2 °F 59.2 °F 57% 29.62 in 10.0 mi South 19.6 mph 28.8 mph N/A   Overcast
4:33 PM 76.1 °F 59.2 °F 56% 29.61 in 10.0 mi South 17.3 mph 35.7 mph N/A   Overcast
4:54 PM 75.7 °F 59.2 °F 56% 29.60 in 10.0 mi South 15.0 mph 27.6 mph N/A   Overcast
5:14 PM 75.7 °F 59.2 °F 56% 29.60 in 10.0 mi South 16.1 mph 25.3 mph N/A   Overcast
5:34 PM 75.4 °F 59.0 °F 57% 29.60 in 10.0 mi SSW 13.8 mph 25.3 mph N/A   Overcast
5:54 PM 75.4 °F 59.0 °F 57% 29.61 in 10.0 mi SSW 17.3 mph 29.9 mph N/A   Overcast
6:14 PM 75.4 °F 59.4 °F 57% 29.61 in 10.0 mi SSW 15.0 mph 34.5 mph N/A   Light Drizzle
6:34 PM 74.7 °F 60.1 °F 60% 29.61 in 10.0 mi South 19.6 mph 33.4 mph N/A   Overcast
6:54 PM 74.5 °F 60.4 °F 61% 29.61 in 10.0 mi South 26.5 mph 33.4 mph N/A   Overcast
7:15 PM 74.3 °F 60.4 °F 62% 29.60 in 10.0 mi South 17.3 mph 28.8 mph N/A   Overcast
7:35 PM 75.4 °F 60.8 °F 60% 29.60 in 10.0 mi South 20.7 mph 31.1 mph N/A   Overcast
7:55 PM 75.4 °F 60.8 °F 60% 29.64 in 10.0 mi WSW 25.3 mph 41.4 mph N/A   Overcast
8:15 PM 62.4 °F 56.5 °F 81% 29.67 in 10.0 mi WSW 12.7 mph 28.8 mph N/A Rain Light Rain
8:35 PM 59.4 °F 55.0 °F 86% 29.68 in 7.0 mi SW 6.9 mph - N/A Rain Light Rain
8:55 PM 58.6 °F 54.0 °F 84% 29.69 in 10.0 mi WSW 11.5 mph 17.3 mph N/A   Overcast
9:15 PM 57.4 °F 52.7 °F 84% 29.72 in 10.0 mi WSW 12.7 mph 18.4 mph N/A   Overcast
9:31 PM 56.7 °F 52.5 °F 86% 29.74 in 10.0 mi WSW 13.8 mph 18.4 mph N/A   Overcast
9:51 PM 55.6 °F 51.8 °F 87% 29.74 in 4.0 mi WNW 15.0 mph 20.7 mph N/A Rain Rain
10:11 PM 53.6 °F 49.6 °F 86% 29.74 in 4.0 mi WNW 12.7 mph 24.2 mph N/A Rain Heavy Rain
10:31 PM 52.2 °F 48.6 °F 88% 29.76 in 4.0 mi WNW 19.6 mph 25.3 mph N/A Rain Rain
10:51 PM 50.4 °F 46.4 °F 86% 29.80 in 7.0 mi WNW 16.1 mph 24.2 mph N/A Rain Rain
11:31 PM 49.1 °F 44.6 °F 84% 29.84 in 5.0 mi WNW 16.1 mph 20.7 mph N/A Rain Rain